Time,TemperatureF,DewpointF,PressureIn,WindDirection,WindDirectionDegrees,WindSpeedMPH,WindSpeedGustMPH,Humidity,HourlyPrecipIn,Conditions,Clouds,dailyrainin,SoftwareType,DateUTC
2013-08-14 00:00:00,56.8,53.3,30.12,ENE,69,0.0,0.0,88,0.00,,,0.00,Wunderground v.1.15,2013-08-14 05:00:00,
2013-08-14 00:05:00,56.6,53.4,30.12,ENE,69,0.0,0.0,89,0.00,,,0.00,Wunderground v.1.15,2013-08-14 05:05:00,
2013-08-14 00:10:00,56.3,53.1,30.12,ENE,69,0.0,0.0,89,0.00,,,0.00,Wunderground v.1.15,2013-08-14 05:10:00,
2013-08-14 00:15:00,56.0,52.8,30.12,ENE,69,0.0,0.0,89,0.00,,,0.00,Wunderground v.1.15,2013-08-14 05:15:00,
2013-08-14 00:20:00,55.8,52.9,30.12,ENE,69,0.0,0.0,90,0.00,,,0.00,Wunderground v.1.15,2013-08-14 05:20:00,
2013-08-14 00:25:00,55.5,52.6,30.13,ENE,69,0.0,0.0,90,0.00,,,0.00,Wunderground v.1.15,2013-08-14 05:25:00,
2013-08-14 00:30:00,55.3,52.7,30.13,ENE,69,0.0,0.0,91,0.00,,,0.00,Wunderground v.1.15,2013-08-14 05:30:00,
2013-08-14 00:35:00,55.1,52.5,30.13,ENE,69,0.0,0.0,91,0.00,,,0.00,Wunderground v.1.15,2013-08-14 05:35:00,
2013-08-14 00:40:00,54.9,52.6,30.13,ENE,69,0.0,0.0,92,0.00,,,0.00,Wunderground v.1.15,2013-08-14 05:40:00,
2013-08-14 00:45:00,54.8,52.5,30.13,ENE,69,0.0,0.0,92,0.00,,,0.00,Wunderground v.1.15,2013-08-14 05:45:00,
2013-08-14 00:50:00,54.7,52.4,30.13,ENE,69,0.0,3.0,92,0.00,,,0.00,Wunderground v.1.15,2013-08-14 05:50:00,
2013-08-14 00:55:00,54.5,52.5,30.13,ENE,69,0.0,3.0,93,0.00,,,0.00,Wunderground v.1.15,2013-08-14 05:55:00,
2013-08-14 01:00:00,54.3,52.3,30.13,ENE,69,0.0,0.0,93,0.00,,,0.00,Wunderground v.1.15,2013-08-14 06:00:00,
2013-08-14 01:05:00,54.3,52.3,30.13,ENE,69,0.0,0.0,93,0.00,,,0.00,Wunderground v.1.15,2013-08-14 06:05:00,
2013-08-14 01:10:00,54.2,52.2,30.13,ENE,69,0.0,0.0,93,0.00,,,0.00,Wunderground v.1.15,2013-08-14 06:10:00,
2013-08-14 01:15:00,54.0,52.0,30.13,ENE,69,0.0,0.0,93,0.00,,,0.00,Wunderground v.1.15,2013-08-14 06:15:00,
2013-08-14 01:25:00,53.9,52.2,30.13,ENE,69,0.0,0.0,94,0.00,,,0.00,Wunderground v.1.15,2013-08-14 06:25:00,
2013-08-14 01:30:00,53.8,52.1,30.13,ENE,69,0.0,0.0,94,0.00,,,0.00,Wunderground v.1.15,2013-08-14 06:30:00,
2013-08-14 01:35:00,53.7,52.0,30.13,ENE,69,0.0,0.0,94,0.00,,,0.00,Wunderground v.1.15,2013-08-14 06:35:00,
2013-08-14 01:40:00,53.7,52.3,30.13,ENE,69,0.0,0.0,95,0.00,,,0.00,Wunderground v.1.15,2013-08-14 06:40:00,
2013-08-14 01:45:00,53.7,52.3,30.13,ENE,69,0.0,0.0,95,0.00,,,0.00,Wunderground v.1.15,2013-08-14 06:45:00,
2013-08-14 01:50:00,53.6,51.9,30.13,ENE,69,0.0,0.0,94,0.00,,,0.00,Wunderground v.1.15,2013-08-14 06:50:00,
2013-08-14 01:55:00,53.6,51.9,30.13,ENE,69,0.0,0.0,94,0.00,,,0.00,Wunderground v.1.15,2013-08-14 06:55:00,
2013-08-14 02:00:00,53.5,51.8,30.13,ENE,69,0.0,0.0,94,0.00,,,0.00,Wunderground v.1.15,2013-08-14 07:00:00,
2013-08-14 02:05:00,53.4,51.7,30.13,ENE,69,0.0,0.0,94,0.00,,,0.00,Wunderground v.1.15,2013-08-14 07:05:00,
2013-08-14 02:10:00,53.3,51.9,30.13,ENE,69,0.0,0.0,95,0.00,,,0.00,Wunderground v.1.15,2013-08-14 07:10:00,
2013-08-14 02:15:00,53.2,51.8,30.13,ENE,69,0.0,0.0,95,0.00,,,0.00,Wunderground v.1.15,2013-08-14 07:15:00,
2013-08-14 02:20:00,53.2,51.8,30.13,ENE,69,0.0,0.0,95,0.00,,,0.00,Wunderground v.1.15,2013-08-14 07:20:00,
2013-08-14 02:25:00,53.1,51.7,30.14,ENE,69,0.0,0.0,95,0.00,,,0.00,Wunderground v.1.15,2013-08-14 07:25:00,
2013-08-14 02:30:00,53.0,51.6,30.14,ENE,69,0.0,0.0,95,0.00,,,0.00,Wunderground v.1.15,2013-08-14 07:30:00,
2013-08-14 02:35:00,53.0,51.6,30.14,ENE,69,0.0,0.0,95,0.00,,,0.00,Wunderground v.1.15,2013-08-14 07:35:00,
2013-08-14 02:40:00,52.9,51.5,30.13,ENE,69,0.0,0.0,95,0.00,,,0.00,Wunderground v.1.15,2013-08-14 07:40:00,
2013-08-14 02:45:00,52.8,51.4,30.14,ENE,69,0.0,0.0,95,0.00,,,0.00,Wunderground v.1.15,2013-08-14 07:45:00,
2013-08-14 02:50:00,52.7,51.6,30.14,ENE,69,0.0,0.0,96,0.00,,,0.00,Wunderground v.1.15,2013-08-14 07:50:00,
2013-08-14 02:55:00,52.6,51.2,30.14,ENE,69,0.0,0.0,95,0.00,,,0.00,Wunderground v.1.15,2013-08-14 07:55:00,
2013-08-14 03:00:00,52.5,51.1,30.14,ENE,69,0.0,0.0,95,0.00,,,0.00,Wunderground v.1.15,2013-08-14 08:00:00,
2013-08-14 03:05:00,52.4,51.0,30.14,ENE,69,0.0,0.0,95,0.00,,,0.00,Wunderground v.1.15,2013-08-14 08:05:00,
2013-08-14 03:10:00,52.3,51.2,30.14,ENE,69,0.0,0.0,96,0.00,,,0.00,Wunderground v.1.15,2013-08-14 08:10:00,
2013-08-14 03:15:00,52.2,51.1,30.14,ENE,69,0.0,0.0,96,0.00,,,0.00,Wunderground v.1.15,2013-08-14 08:15:00,
2013-08-14 03:20:00,52.1,51.0,30.14,ENE,69,0.0,0.0,96,0.00,,,0.00,Wunderground v.1.15,2013-08-14 08:20:00,
2013-08-14 03:25:00,52.0,50.9,30.14,ENE,69,0.0,0.0,96,0.00,,,0.00,Wunderground v.1.15,2013-08-14 08:25:00,
2013-08-14 03:30:00,51.9,50.8,30.14,ENE,69,0.0,0.0,96,0.00,,,0.00,Wunderground v.1.15,2013-08-14 08:30:00,
2013-08-14 03:35:00,51.8,50.7,30.14,ENE,69,0.0,0.0,96,0.00,,,0.00,Wunderground v.1.15,2013-08-14 08:35:00,
2013-08-14 03:40:00,51.7,50.6,30.14,ENE,69,0.0,0.0,96,0.00,,,0.00,Wunderground v.1.15,2013-08-14 08:40:00,
2013-08-14 03:45:00,51.7,50.6,30.14,ENE,69,0.0,0.0,96,0.00,,,0.00,Wunderground v.1.15,2013-08-14 08:45:00,
2013-08-14 03:55:00,51.5,50.4,30.14,ENE,69,0.0,0.0,96,0.00,,,0.00,Wunderground v.1.15,2013-08-14 08:55:00,
2013-08-14 04:00:00,51.5,50.4,30.14,ENE,69,0.0,0.0,96,0.00,,,0.00,Wunderground v.1.15,2013-08-14 09:00:00,
2013-08-14 04:05:00,51.5,50.4,30.14,ENE,69,0.0,0.0,96,0.00,,,0.00,Wunderground v.1.15,2013-08-14 09:05:00,
2013-08-14 04:15:00,51.3,50.2,30.14,ENE,69,0.0,0.0,96,0.00,,,0.00,Wunderground v.1.15,2013-08-14 09:15:00,
2013-08-14 04:20:00,51.3,50.2,30.14,ENE,69,0.0,0.0,96,0.00,,,0.00,Wunderground v.1.15,2013-08-14 09:20:00,
2013-08-14 04:25:00,51.2,50.1,30.14,ENE,69,0.0,0.0,96,0.00,,,0.00,Wunderground v.1.15,2013-08-14 09:25:00,
2013-08-14 04:30:00,51.2,50.1,30.14,ENE,69,0.0,0.0,96,0.00,,,0.00,Wunderground v.1.15,2013-08-14 09:30:00,
2013-08-14 04:35:00,51.2,50.1,30.14,ENE,69,0.0,0.0,96,0.00,,,0.00,Wunderground v.1.15,2013-08-14 09:35:00,
2013-08-14 04:40:00,51.1,50.0,30.14,ENE,69,0.0,0.0,96,0.00,,,0.00,Wunderground v.1.15,2013-08-14 09:40:00,
2013-08-14 04:45:00,51.0,49.9,30.14,ENE,69,0.0,0.0,96,0.00,,,0.00,Wunderground v.1.15,2013-08-14 09:45:00,
2013-08-14 04:50:00,51.0,49.9,30.15,ENE,61,0.0,0.0,96,0.00,,,0.00,Wunderground v.1.15,2013-08-14 09:50:00,
2013-08-14 04:55:00,50.9,49.8,30.15,ENE,61,0.0,0.0,96,0.00,,,0.00,Wunderground v.1.15,2013-08-14 09:55:00,
2013-08-14 05:00:00,50.9,49.8,30.15,ENE,61,0.0,0.0,96,0.00,,,0.00,Wunderground v.1.15,2013-08-14 10:00:00,
2013-08-14 05:05:00,50.9,50.1,30.15,ENE,61,0.0,0.0,97,0.00,,,0.00,Wunderground v.1.15,2013-08-14 10:05:00,
2013-08-14 05:10:00,50.8,49.7,30.15,ENE,61,0.0,0.0,96,0.00,,,0.00,Wunderground v.1.15,2013-08-14 10:10:00,
2013-08-14 05:15:00,50.7,49.6,30.16,ENE,61,0.0,0.0,96,0.00,,,0.00,Wunderground v.1.15,2013-08-14 10:15:00,
2013-08-14 05:20:00,50.6,49.5,30.16,ENE,61,0.0,0.0,96,0.00,,,0.00,Wunderground v.1.15,2013-08-14 10:20:00,
2013-08-14 05:25:00,50.6,49.5,30.16,ENE,61,0.0,0.0,96,0.00,,,0.00,Wunderground v.1.15,2013-08-14 10:25:00,
2013-08-14 05:30:00,50.5,49.4,30.16,ENE,61,0.0,0.0,96,0.00,,,0.00,Wunderground v.1.15,2013-08-14 10:30:00,
2013-08-14 05:35:00,50.5,49.4,30.16,ENE,61,0.0,1.0,96,0.00,,,0.00,Wunderground v.1.15,2013-08-14 10:35:00,
2013-08-14 05:40:00,50.5,49.7,30.16,NE,39,0.0,1.0,97,0.00,,,0.00,Wunderground v.1.15,2013-08-14 10:40:00,
2013-08-14 05:45:00,50.5,49.7,30.17,NNE,15,1.0,2.0,97,0.00,,,0.00,Wunderground v.1.15,2013-08-14 10:45:00,
2013-08-14 05:50:00,50.6,49.8,30.17,NNE,14,1.0,1.0,97,0.00,,,0.00,Wunderground v.1.15,2013-08-14 10:50:00,
2013-08-14 05:55:00,50.6,49.8,30.17,NNE,17,1.0,1.0,97,0.00,,,0.00,Wunderground v.1.15,2013-08-14 10:55:00,
2013-08-14 06:00:00,50.6,49.8,30.17,NNE,17,1.0,2.0,97,0.00,,,0.00,Wunderground v.1.15,2013-08-14 11:00:00,
2013-08-14 06:10:00,50.5,49.7,30.17,NNE,13,1.0,1.0,97,0.00,,,0.00,Wunderground v.1.15,2013-08-14 11:10:00,
2013-08-14 06:15:00,50.4,49.6,30.17,NNE,13,0.0,1.0,97,0.00,,,0.00,Wunderground v.1.15,2013-08-14 11:15:00,
2013-08-14 06:20:00,50.4,49.6,30.17,NNE,13,0.0,0.0,97,0.00,,,0.00,Wunderground v.1.15,2013-08-14 11:20:00,
2013-08-14 06:25:00,50.5,49.7,30.17,NNE,13,0.0,0.0,97,0.00,,,0.00,Wunderground v.1.15,2013-08-14 11:25:00,
2013-08-14 06:30:00,50.4,49.6,30.17,NNE,13,0.0,0.0,97,0.00,,,0.00,Wunderground v.1.15,2013-08-14 11:30:00,
2013-08-14 06:35:00,50.4,49.6,30.17,NNE,13,0.0,0.0,97,0.00,,,0.00,Wunderground v.1.15,2013-08-14 11:35:00,
2013-08-14 06:40:00,50.4,49.6,30.17,NNE,13,0.0,0.0,97,0.00,,,0.00,Wunderground v.1.15,2013-08-14 11:40:00,
2013-08-14 06:45:00,50.5,49.7,30.17,NNE,13,0.0,0.0,97,0.00,,,0.00,Wunderground v.1.15,2013-08-14 11:45:00,
2013-08-14 06:50:00,50.6,49.8,30.17,NNE,13,0.0,3.0,97,0.00,,,0.00,Wunderground v.1.15,2013-08-14 11:50:00,
2013-08-14 06:55:00,51.0,50.5,30.17,NNE,23,0.0,3.0,98,0.00,,,0.00,Wunderground v.1.15,2013-08-14 11:55:00,
2013-08-14 07:00:00,51.4,50.9,30.17,NNE,17,1.0,3.0,98,0.00,,,0.00,Wunderground v.1.15,2013-08-14 12:00:00,
2013-08-14 07:05:00,51.6,51.1,30.17,NNE,22,1.0,3.0,98,0.00,,,0.00,Wunderground v.1.15,2013-08-14 12:05:00,
2013-08-14 07:10:00,51.9,51.4,30.17,NNE,19,1.0,2.0,98,0.00,,,0.00,Wunderground v.1.15,2013-08-14 12:10:00,
2013-08-14 07:15:00,52.2,51.7,30.18,NNE,19,1.0,2.0,98,0.00,,,0.00,Wunderground v.1.15,2013-08-14 12:15:00,
2013-08-14 07:20:00,52.5,52.0,30.18,NNE,19,1.0,1.0,98,0.00,,,0.00,Wunderground v.1.15,2013-08-14 12:20:00,
2013-08-14 07:25:00,52.8,52.0,30.18,North,11,2.0,2.0,97,0.00,,,0.00,Wunderground v.1.15,2013-08-14 12:25:00,
2013-08-14 07:30:00,53.2,52.4,30.18,North,10,2.0,2.0,97,0.00,,,0.00,Wunderground v.1.15,2013-08-14 12:30:00,
2013-08-14 07:35:00,53.5,52.7,30.18,ENE,62,2.0,2.0,97,0.00,,,0.00,Wunderground v.1.15,2013-08-14 12:35:00,
2013-08-14 07:40:00,53.7,52.9,30.18,NNE,14,1.0,2.0,97,0.00,,,0.00,Wunderground v.1.15,2013-08-14 12:40:00,
2013-08-14 07:45:00,54.1,53.0,30.18,NNE,30,1.0,2.0,96,0.00,,,0.00,Wunderground v.1.15,2013-08-14 12:45:00,
2013-08-14 07:55:00,54.8,53.4,30.18,NE,54,1.0,2.0,95,0.00,,,0.00,Wunderground v.1.15,2013-08-14 12:55:00,
2013-08-14 08:00:00,55.3,53.9,30.17,North,5,1.0,1.0,95,0.00,,,0.00,Wunderground v.1.15,2013-08-14 13:00:00,
2013-08-14 08:05:00,56.1,54.7,30.17,North,5,2.0,2.0,95,0.00,,,0.00,Wunderground v.1.15,2013-08-14 13:05:00,
2013-08-14 08:10:00,57.1,54.8,30.17,North,360,2.0,2.0,92,0.00,,,0.00,Wunderground v.1.15,2013-08-14 13:10:00,
2013-08-14 08:15:00,58.1,55.2,30.17,ENE,69,2.0,2.0,90,0.00,,,0.00,Wunderground v.1.15,2013-08-14 13:15:00,
2013-08-14 08:20:00,59.0,55.4,30.17,NE,49,1.0,2.0,88,0.00,,,0.00,Wunderground v.1.15,2013-08-14 13:20:00,
2013-08-14 08:25:00,60.1,55.9,30.17,East,80,2.0,2.0,86,0.00,,,0.00,Wunderground v.1.15,2013-08-14 13:25:00,
2013-08-14 08:30:00,61.0,56.1,30.18,ENE,69,2.0,3.0,84,0.00,,,0.00,Wunderground v.1.15,2013-08-14 13:30:00,
2013-08-14 08:35:00,61.8,56.6,30.18,NE,38,1.0,3.0,83,0.00,,,0.00,Wunderground v.1.15,2013-08-14 13:35:00,
2013-08-14 08:40:00,62.7,56.4,30.18,North,9,2.0,4.0,80,0.00,,,0.00,Wunderground v.1.15,2013-08-14 13:40:00,
2013-08-14 08:45:00,63.5,56.9,30.18,NNE,19,2.0,4.0,79,0.00,,,0.00,Wunderground v.1.15,2013-08-14 13:45:00,
2013-08-14 08:50:00,64.0,56.6,30.18,East,83,2.0,3.0,77,0.00,,,0.00,Wunderground v.1.15,2013-08-14 13:50:00,
2013-08-14 08:55:00,64.3,56.9,30.18,East,83,1.0,3.0,77,0.00,,,0.00,Wunderground v.1.15,2013-08-14 13:55:00,
2013-08-14 09:00:00,64.4,56.7,30.18,ENE,76,1.0,1.0,76,0.00,,,0.00,Wunderground v.1.15,2013-08-14 14:00:00,
2013-08-14 09:10:00,65.7,57.6,30.18,East,90,1.0,1.0,75,0.00,,,0.00,Wunderground v.1.15,2013-08-14 14:10:00,
2013-08-14 09:15:00,66.3,57.0,30.18,East,87,1.0,2.0,72,0.00,,,0.00,Wunderground v.1.15,2013-08-14 14:15:00,
2013-08-14 09:20:00,66.6,56.1,30.18,NNE,33,1.0,1.0,69,0.00,,,0.00,Wunderground v.1.15,2013-08-14 14:20:00,
2013-08-14 09:25:00,66.6,56.1,30.18,ESE,109,1.0,1.0,69,0.00,,,0.00,Wunderground v.1.15,2013-08-14 14:25:00,
2013-08-14 09:30:00,66.7,55.8,30.18,East,92,1.0,3.0,68,0.00,,,0.00,Wunderground v.1.15,2013-08-14 14:30:00,
2013-08-14 09:35:00,67.1,56.6,30.18,East,94,1.0,3.0,69,0.00,,,0.00,Wunderground v.1.15,2013-08-14 14:35:00,
2013-08-14 09:40:00,67.6,55.8,30.18,SE,127,1.0,2.0,66,0.00,,,0.00,Wunderground v.1.15,2013-08-14 14:40:00,
2013-08-14 09:45:00,67.4,56.5,30.19,SE,140,1.0,3.0,68,0.00,,,0.00,Wunderground v.1.15,2013-08-14 14:45:00,
2013-08-14 09:50:00,67.6,56.2,30.19,East,82,1.0,1.0,67,0.00,,,0.00,Wunderground v.1.15,2013-08-14 14:50:00,
2013-08-14 10:00:00,69.2,57.4,30.19,East,88,1.0,1.0,66,0.00,,,0.00,Wunderground v.1.15,2013-08-14 15:00:00,
2013-08-14 10:05:00,69.7,57.4,30.19,NNE,13,1.0,1.0,65,0.00,,,0.00,Wunderground v.1.15,2013-08-14 15:05:00,
2013-08-14 10:10:00,69.0,55.4,30.19,West,271,2.0,3.0,62,0.00,,,0.00,Wunderground v.1.15,2013-08-14 15:10:00,
2013-08-14 10:15:00,67.9,55.7,30.19,North,360,1.0,3.0,65,0.00,,,0.00,Wunderground v.1.15,2013-08-14 15:15:00,
2013-08-14 10:20:00,67.4,55.6,30.19,NW,315,2.0,2.0,66,0.00,,,0.00,Wunderground v.1.15,2013-08-14 15:20:00,
2013-08-14 10:25:00,67.5,57.0,30.19,NW,319,2.0,2.0,69,0.00,,,0.00,Wunderground v.1.15,2013-08-14 15:25:00,
2013-08-14 10:30:00,67.5,55.3,30.19,West,259,2.0,2.0,65,0.00,,,0.00,Wunderground v.1.15,2013-08-14 15:30:00,
2013-08-14 10:35:00,67.3,55.5,30.19,NE,36,2.0,2.0,66,0.00,,,0.00,Wunderground v.1.15,2013-08-14 15:35:00,
2013-08-14 10:40:00,67.6,55.0,30.19,NNE,32,1.0,1.0,64,0.00,,,0.00,Wunderground v.1.15,2013-08-14 15:40:00,
2013-08-14 10:45:00,67.8,54.7,30.19,NNE,33,1.0,1.0,63,0.00,,,0.00,Wunderground v.1.15,2013-08-14 15:45:00,
2013-08-14 10:50:00,67.4,54.8,30.19,NNE,32,1.0,1.0,64,0.00,,,0.00,Wunderground v.1.15,2013-08-14 15:50:00,
2013-08-14 10:55:00,67.6,55.0,30.19,NE,49,0.0,4.0,64,0.00,,,0.00,Wunderground v.1.15,2013-08-14 15:55:00,
2013-08-14 11:00:00,68.8,55.7,30.19,NNE,28,1.0,1.0,63,0.00,,,0.00,Wunderground v.1.15,2013-08-14 16:00:00,
2013-08-14 11:10:00,70.8,55.3,30.19,NNE,16,2.0,4.0,58,0.00,,,0.00,Wunderground v.1.15,2013-08-14 16:10:00,
2013-08-14 11:15:00,71.2,55.2,30.19,NNW,331,3.0,4.0,57,0.00,,,0.00,Wunderground v.1.15,2013-08-14 16:15:00,
2013-08-14 11:20:00,71.5,55.0,30.19,WNW,299,3.0,3.0,56,0.00,,,0.00,Wunderground v.1.15,2013-08-14 16:20:00,
2013-08-14 11:25:00,71.6,55.1,30.19,North,360,2.0,3.0,56,0.00,,,0.00,Wunderground v.1.15,2013-08-14 16:25:00,
2013-08-14 11:30:00,71.4,53.4,30.19,NNE,19,2.0,2.0,53,0.00,,,0.00,Wunderground v.1.15,2013-08-14 16:30:00,
2013-08-14 11:35:00,71.7,53.7,30.19,NE,44,3.0,3.0,53,0.00,,,0.00,Wunderground v.1.15,2013-08-14 16:35:00,
2013-08-14 11:40:00,71.9,53.8,30.18,North,9,2.0,2.0,53,0.00,,,0.00,Wunderground v.1.15,2013-08-14 16:40:00,
2013-08-14 11:45:00,72.4,55.8,30.18,East,96,2.0,2.0,56,0.00,,,0.00,Wunderground v.1.15,2013-08-14 16:45:00,
2013-08-14 11:50:00,72.7,54.1,30.19,NNE,32,2.0,3.0,52,0.00,,,0.00,Wunderground v.1.15,2013-08-14 16:50:00,
2013-08-14 11:55:00,72.1,54.0,30.19,North,9,2.0,4.0,53,0.00,,,0.00,Wunderground v.1.15,2013-08-14 16:55:00,
2013-08-14 12:05:00,71.5,55.0,30.18,NNW,343,3.0,3.0,56,0.00,,,0.00,Wunderground v.1.15,2013-08-14 17:05:00,
2013-08-14 12:15:00,72.8,55.2,30.18,WNW,301,2.0,5.0,54,0.00,,,0.00,Wunderground v.1.15,2013-08-14 17:15:00,
2013-08-14 12:20:00,72.9,54.2,30.18,West,281,2.0,3.0,52,0.00,,,0.00,Wunderground v.1.15,2013-08-14 17:20:00,
2013-08-14 12:25:00,72.9,53.2,30.18,NW,325,3.0,3.0,50,0.00,,,0.00,Wunderground v.1.15,2013-08-14 17:25:00,
2013-08-14 12:35:00,73.0,53.8,30.17,WSW,250,3.0,4.0,51,0.00,,,0.00,Wunderground v.1.15,2013-08-14 17:35:00,
2013-08-14 12:40:00,72.5,54.4,30.17,NNE,23,3.0,3.0,53,0.00,,,0.00,Wunderground v.1.15,2013-08-14 17:40:00,
2013-08-14 12:45:00,72.1,53.0,30.17,North,355,2.0,3.0,51,0.00,,,0.00,Wunderground v.1.15,2013-08-14 17:45:00,
2013-08-14 12:55:00,71.5,53.5,30.17,West,266,3.0,3.0,53,0.00,,,0.00,Wunderground v.1.15,2013-08-14 17:55:00,
2013-08-14 13:00:00,71.8,55.7,30.17,NE,44,3.0,6.0,57,0.00,,,0.00,Wunderground v.1.15,2013-08-14 18:00:00,
2013-08-14 13:05:00,72.4,52.2,30.17,North,360,3.0,6.0,49,0.00,,,0.00,Wunderground v.1.15,2013-08-14 18:05:00,
2013-08-14 13:10:00,73.1,54.9,30.17,West,271,2.0,3.0,53,0.00,,,0.00,Wunderground v.1.15,2013-08-14 18:10:00,
2013-08-14 13:15:00,73.1,52.8,30.16,North,5,2.0,3.0,49,0.00,,,0.00,Wunderground v.1.15,2013-08-14 18:15:00,
2013-08-14 13:20:00,73.8,53.4,30.16,ESE,113,2.0,2.0,49,0.00,,,0.00,Wunderground v.1.15,2013-08-14 18:20:00,
2013-08-14 13:30:00,73.7,53.3,30.16,NW,324,2.0,2.0,49,0.00,,,0.00,Wunderground v.1.15,2013-08-14 18:30:00,
2013-08-14 13:35:00,73.0,54.3,30.16,NE,51,2.0,2.0,52,0.00,,,0.00,Wunderground v.1.15,2013-08-14 18:35:00,
2013-08-14 13:40:00,73.5,53.2,30.16,East,96,3.0,3.0,49,0.00,,,0.00,Wunderground v.1.15,2013-08-14 18:40:00,
2013-08-14 13:45:00,73.6,53.3,30.16,NNE,20,3.0,6.0,49,0.00,,,0.00,Wunderground v.1.15,2013-08-14 18:45:00,
2013-08-14 13:50:00,72.7,53.0,30.16,NNW,332,3.0,3.0,50,0.00,,,0.00,Wunderground v.1.15,2013-08-14 18:50:00,
2013-08-14 13:55:00,71.7,52.6,30.15,ENE,57,2.0,7.0,51,0.00,,,0.00,Wunderground v.1.15,2013-08-14 18:55:00,
2013-08-14 14:00:00,72.2,53.6,30.15,North,5,2.0,3.0,52,0.00,,,0.00,Wunderground v.1.15,2013-08-14 19:00:00,
2013-08-14 14:15:00,74.1,52.0,30.15,West,276,3.0,3.0,46,0.00,,,0.00,Wunderground v.1.15,2013-08-14 19:15:00,
2013-08-14 14:20:00,73.9,53.0,30.15,NNE,15,3.0,3.0,48,0.00,,,0.00,Wunderground v.1.15,2013-08-14 19:20:00,
2013-08-14 14:35:00,72.6,52.3,30.15,West,263,2.0,5.0,49,0.00,,,0.00,Wunderground v.1.15,2013-08-14 19:35:00,
2013-08-14 14:40:00,72.9,52.6,30.15,WNW,290,3.0,3.0,49,0.00,,,0.00,Wunderground v.1.15,2013-08-14 19:40:00,
2013-08-14 14:45:00,73.6,52.7,30.15,WSW,248,2.0,3.0,48,0.00,,,0.00,Wunderground v.1.15,2013-08-14 19:45:00,
2013-08-14 14:50:00,74.2,54.4,30.14,WNW,294,1.0,9.0,50,0.00,,,0.00,Wunderground v.1.15,2013-08-14 19:50:00,
2013-08-14 14:55:00,74.0,53.1,30.15,WNW,282,2.0,9.0,48,0.00,,,0.00,Wunderground v.1.15,2013-08-14 19:55:00,
2013-08-14 15:00:00,74.5,52.4,30.14,NNE,28,3.0,6.0,46,0.00,,,0.00,Wunderground v.1.15,2013-08-14 20:00:00,
2013-08-14 15:05:00,75.1,51.7,30.14,NNE,24,4.0,7.0,44,0.00,,,0.00,Wunderground v.1.15,2013-08-14 20:05:00,
2013-08-14 15:10:00,75.3,51.9,30.14,NNE,13,4.0,4.0,44,0.00,,,0.00,Wunderground v.1.15,2013-08-14 20:10:00,
2013-08-14 15:15:00,75.5,52.1,30.14,East,90,3.0,4.0,44,0.00,,,0.00,Wunderground v.1.15,2013-08-14 20:15:00,
2013-08-14 15:35:00,75.1,52.3,30.13,ENE,65,2.0,4.0,45,0.00,,,0.00,Wunderground v.1.15,2013-08-14 20:35:00,
2013-08-14 15:40:00,75.1,53.5,30.13,NNW,342,2.0,2.0,47,0.00,,,0.00,Wunderground v.1.15,2013-08-14 20:40:00,
2013-08-14 15:50:00,74.3,51.6,30.13,NNE,18,2.0,2.0,45,0.00,,,0.00,Wunderground v.1.15,2013-08-14 20:50:00,
2013-08-14 15:55:00,73.8,52.3,30.13,NE,38,2.0,7.0,47,0.00,,,0.00,Wunderground v.1.15,2013-08-14 20:55:00,
2013-08-14 16:00:00,73.2,51.8,30.13,NE,49,1.0,1.0,47,0.00,,,0.00,Wunderground v.1.15,2013-08-14 21:00:00,
2013-08-14 16:10:00,72.8,52.5,30.13,North,360,1.0,1.0,49,0.00,,,0.00,Wunderground v.1.15,2013-08-14 21:10:00,
2013-08-14 16:15:00,72.7,51.9,30.12,NW,310,1.0,7.0,48,0.00,,,0.00,Wunderground v.1.15,2013-08-14 21:15:00,
2013-08-14 16:20:00,72.6,52.3,30.12,WNW,296,1.0,7.0,49,0.00,,,0.00,Wunderground v.1.15,2013-08-14 21:20:00,
2013-08-14 16:25:00,72.8,53.1,30.12,ENE,63,1.0,7.0,50,0.00,,,0.00,Wunderground v.1.15,2013-08-14 21:25:00,
2013-08-14 16:30:00,72.9,52.1,30.12,East,84,1.0,7.0,48,0.00,,,0.00,Wunderground v.1.15,2013-08-14 21:30:00,
2013-08-14 16:35:00,73.1,52.2,30.12,North,5,2.0,7.0,48,0.00,,,0.00,Wunderground v.1.15,2013-08-14 21:35:00,
2013-08-14 16:40:00,73.4,52.5,30.11,NE,49,3.0,3.0,48,0.00,,,0.00,Wunderground v.1.15,2013-08-14 21:40:00,
2013-08-14 16:45:00,73.4,53.6,30.11,NNE,28,3.0,7.0,50,0.00,,,0.00,Wunderground v.1.15,2013-08-14 21:45:00,
2013-08-14 16:50:00,73.5,52.0,30.11,NNE,20,2.0,2.0,47,0.00,,,0.00,Wunderground v.1.15,2013-08-14 21:50:00,
2013-08-14 16:55:00,73.4,53.1,30.12,East,94,2.0,7.0,49,0.00,,,0.00,Wunderground v.1.15,2013-08-14 21:55:00,
2013-08-14 17:00:00,73.4,53.1,30.12,NNE,25,2.0,7.0,49,0.00,,,0.00,Wunderground v.1.15,2013-08-14 22:00:00,
2013-08-14 17:05:00,73.4,51.9,30.12,NNE,26,2.0,7.0,47,0.00,,,0.00,Wunderground v.1.15,2013-08-14 22:05:00,
2013-08-14 17:10:00,73.1,52.8,30.12,North,9,1.0,7.0,49,0.00,,,0.00,Wunderground v.1.15,2013-08-14 22:10:00,
2013-08-14 17:20:00,72.7,53.0,30.11,NNE,33,1.0,7.0,50,0.00,,,0.00,Wunderground v.1.15,2013-08-14 22:20:00,
2013-08-14 17:25:00,72.8,53.1,30.11,NNE,13,2.0,7.0,50,0.00,,,0.00,Wunderground v.1.15,2013-08-14 22:25:00,
2013-08-14 17:30:00,72.9,53.2,30.11,NNE,17,2.0,2.0,50,0.00,,,0.00,Wunderground v.1.15,2013-08-14 22:30:00,
2013-08-14 17:35:00,72.5,54.4,30.11,NNE,19,1.0,7.0,53,0.00,,,0.00,Wunderground v.1.15,2013-08-14 22:35:00,
2013-08-14 17:40:00,72.1,54.5,30.11,NNE,24,1.0,7.0,54,0.00,,,0.00,Wunderground v.1.15,2013-08-14 22:40:00,
2013-08-14 17:45:00,71.6,53.6,30.11,NNE,24,1.0,7.0,53,0.00,,,0.00,Wunderground v.1.15,2013-08-14 22:45:00,
2013-08-14 17:50:00,71.2,52.1,30.11,NNE,24,0.0,7.0,51,0.00,,,0.00,Wunderground v.1.15,2013-08-14 22:50:00,
2013-08-14 17:55:00,71.3,51.7,30.11,ENE,59,0.0,7.0,50,0.00,,,0.00,Wunderground v.1.15,2013-08-14 22:55:00,
2013-08-14 18:05:00,71.6,52.0,30.11,NE,43,1.0,2.0,50,0.00,,,0.00,Wunderground v.1.15,2013-08-14 23:05:00,
2013-08-14 18:10:00,71.7,52.6,30.11,ENE,61,1.0,3.0,51,0.00,,,0.00,Wunderground v.1.15,2013-08-14 23:10:00,
2013-08-14 18:15:00,71.7,51.5,30.10,NE,55,1.0,3.0,49,0.00,,,0.00,Wunderground v.1.15,2013-08-14 23:15:00,
2013-08-14 18:20:00,71.8,52.2,30.10,ENE,57,1.0,1.0,50,0.00,,,0.00,Wunderground v.1.15,2013-08-14 23:20:00,
2013-08-14 18:25:00,71.7,52.1,30.10,ENE,69,1.0,1.0,50,0.00,,,0.00,Wunderground v.1.15,2013-08-14 23:25:00,
2013-08-14 18:30:00,71.7,52.1,30.10,ENE,61,2.0,2.0,50,0.00,,,0.00,Wunderground v.1.15,2013-08-14 23:30:00,
2013-08-14 18:35:00,71.5,53.5,30.10,ENE,61,1.0,2.0,53,0.00,,,0.00,Wunderground v.1.15,2013-08-14 23:35:00,
2013-08-14 18:40:00,71.2,52.7,30.10,ENE,61,0.0,0.0,52,0.00,,,0.00,Wunderground v.1.15,2013-08-14 23:40:00,
2013-08-14 18:45:00,70.9,52.9,30.10,ENE,61,0.0,0.0,53,0.00,,,0.00,Wunderground v.1.15,2013-08-14 23:45:00,
2013-08-14 18:50:00,70.8,52.8,30.10,ENE,61,0.0,5.0,53,0.00,,,0.00,Wunderground v.1.15,2013-08-14 23:50:00,
2013-08-14 18:55:00,70.7,53.2,30.10,ENE,61,0.0,5.0,54,0.00,,,0.00,Wunderground v.1.15,2013-08-14 23:55:00,
2013-08-14 19:00:00,70.6,53.6,30.10,ENE,61,0.0,1.0,55,0.00,,,0.00,Wunderground v.1.15,2013-08-15 00:00:00,
2013-08-14 19:05:00,70.5,54.5,30.10,ENE,61,0.0,1.0,57,0.00,,,0.00,Wunderground v.1.15,2013-08-15 00:05:00,
2013-08-14 19:10:00,70.3,54.8,30.10,ENE,61,0.0,0.0,58,0.00,,,0.00,Wunderground v.1.15,2013-08-15 00:10:00,
2013-08-14 19:15:00,70.1,53.2,30.10,ENE,61,0.0,0.0,55,0.00,,,0.00,Wunderground v.1.15,2013-08-15 00:15:00,
2013-08-14 19:20:00,69.7,53.3,30.10,ENE,61,0.0,0.0,56,0.00,,,0.00,Wunderground v.1.15,2013-08-15 00:20:00,
2013-08-14 19:25:00,69.3,53.4,30.10,ENE,61,0.0,0.0,57,0.00,,,0.00,Wunderground v.1.15,2013-08-15 00:25:00,
2013-08-14 19:30:00,68.9,54.0,30.10,ENE,61,0.0,0.0,59,0.00,,,0.00,Wunderground v.1.15,2013-08-15 00:30:00,
2013-08-14 19:35:00,68.4,54.4,30.10,ENE,61,0.0,0.0,61,0.00,,,0.00,Wunderground v.1.15,2013-08-15 00:35:00,
2013-08-14 19:45:00,67.4,54.8,30.10,ENE,61,0.0,0.0,64,0.00,,,0.00,Wunderground v.1.15,2013-08-15 00:45:00,
2013-08-14 19:50:00,66.9,54.7,30.10,ENE,61,0.0,1.0,65,0.00,,,0.00,Wunderground v.1.15,2013-08-15 00:50:00,
2013-08-14 19:55:00,66.4,54.7,30.10,ENE,61,0.0,1.0,66,0.00,,,0.00,Wunderground v.1.15,2013-08-15 00:55:00,
2013-08-14 20:00:00,66.0,55.1,30.10,ENE,61,0.0,0.0,68,0.00,,,0.00,Wunderground v.1.15,2013-08-15 01:00:00,
2013-08-14 20:05:00,65.6,55.2,30.10,ENE,61,0.0,0.0,69,0.00,,,0.00,Wunderground v.1.15,2013-08-15 01:05:00,
2013-08-14 20:10:00,65.2,54.8,30.10,ENE,61,0.0,0.0,69,0.00,,,0.00,Wunderground v.1.15,2013-08-15 01:10:00,
2013-08-14 20:15:00,64.9,55.3,30.10,ENE,61,0.0,0.0,71,0.00,,,0.00,Wunderground v.1.15,2013-08-15 01:15:00,
2013-08-14 20:20:00,64.5,54.9,30.10,ENE,61,0.0,0.0,71,0.00,,,0.00,Wunderground v.1.15,2013-08-15 01:20:00,
2013-08-14 20:25:00,64.1,54.1,30.10,ENE,61,0.0,0.0,70,0.00,,,0.00,Wunderground v.1.15,2013-08-15 01:25:00,
2013-08-14 20:30:00,63.8,53.8,30.10,ENE,61,0.0,0.0,70,0.00,,,0.00,Wunderground v.1.15,2013-08-15 01:30:00,
2013-08-14 20:35:00,63.5,53.9,30.10,ENE,61,0.0,0.0,71,0.00,,,0.00,Wunderground v.1.15,2013-08-15 01:35:00,
2013-08-14 20:45:00,63.1,54.3,30.10,ENE,61,0.0,0.0,73,0.00,,,0.00,Wunderground v.1.15,2013-08-15 01:45:00,
2013-08-14 20:50:00,63.0,54.6,30.10,ENE,61,0.0,0.0,74,0.00,,,0.00,Wunderground v.1.15,2013-08-15 01:50:00,
2013-08-14 20:55:00,62.8,54.4,30.11,ENE,61,0.0,0.0,74,0.00,,,0.00,Wunderground v.1.15,2013-08-15 01:55:00,
2013-08-14 21:00:00,62.5,54.1,30.11,ENE,61,0.0,0.0,74,0.00,,,0.00,Wunderground v.1.15,2013-08-15 02:00:00,
2013-08-14 21:05:00,62.3,53.9,30.11,ENE,61,0.0,0.0,74,0.00,,,0.00,Wunderground v.1.15,2013-08-15 02:05:00,
2013-08-14 21:10:00,62.1,53.7,30.11,ENE,61,0.0,0.0,74,0.00,,,0.00,Wunderground v.1.15,2013-08-15 02:10:00,
2013-08-14 21:15:00,62.0,54.3,30.11,ENE,61,0.0,0.0,76,0.00,,,0.00,Wunderground v.1.15,2013-08-15 02:15:00,
2013-08-14 21:20:00,61.8,54.5,30.11,ENE,61,0.0,0.0,77,0.00,,,0.00,Wunderground v.1.15,2013-08-15 02:20:00,
2013-08-14 21:25:00,61.6,55.0,30.11,ENE,61,0.0,0.0,79,0.00,,,0.00,Wunderground v.1.15,2013-08-15 02:25:00,
2013-08-14 21:30:00,61.4,55.2,30.11,ENE,61,0.0,0.0,80,0.00,,,0.00,Wunderground v.1.15,2013-08-15 02:30:00,
2013-08-14 21:35:00,61.2,55.3,30.11,ENE,61,0.0,0.0,81,0.00,,,0.00,Wunderground v.1.15,2013-08-15 02:35:00,
2013-08-14 21:40:00,60.9,55.0,30.11,ENE,61,0.0,0.0,81,0.00,,,0.00,Wunderground v.1.15,2013-08-15 02:40:00,
2013-08-14 21:45:00,60.7,55.2,30.11,ENE,61,0.0,1.0,82,0.00,,,0.00,Wunderground v.1.15,2013-08-15 02:45:00,
2013-08-14 21:50:00,60.5,55.0,30.11,ENE,61,0.0,1.0,82,0.00,,,0.00,Wunderground v.1.15,2013-08-15 02:50:00,
2013-08-14 21:55:00,60.3,55.1,30.12,ENE,61,0.0,1.0,83,0.00,,,0.00,Wunderground v.1.15,2013-08-15 02:55:00,
2013-08-14 22:00:00,60.2,55.0,30.12,ENE,76,0.0,2.0,83,0.00,,,0.00,Wunderground v.1.15,2013-08-15 03:00:00,
2013-08-14 22:05:00,60.0,54.2,30.12,ESE,106,1.0,2.0,81,0.00,,,0.00,Wunderground v.1.15,2013-08-15 03:05:00,
2013-08-14 22:10:00,60.0,54.2,30.12,East,98,1.0,1.0,81,0.00,,,0.00,Wunderground v.1.15,2013-08-15 03:10:00,
2013-08-14 22:15:00,60.1,53.9,30.12,East,96,1.0,2.0,80,0.00,,,0.00,Wunderground v.1.15,2013-08-15 03:15:00,
2013-08-14 22:20:00,60.2,54.0,30.12,East,96,1.0,1.0,80,0.00,,,0.00,Wunderground v.1.15,2013-08-15 03:20:00,
2013-08-14 22:25:00,60.2,54.0,30.12,SE,128,1.0,1.0,80,0.00,,,0.00,Wunderground v.1.15,2013-08-15 03:25:00,
2013-08-14 22:30:00,60.2,54.0,30.12,East,100,1.0,1.0,80,0.00,,,0.00,Wunderground v.1.15,2013-08-15 03:30:00,
2013-08-14 22:35:00,60.1,53.9,30.12,ESE,107,1.0,1.0,80,0.00,,,0.00,Wunderground v.1.15,2013-08-15 03:35:00,
2013-08-14 22:40:00,60.0,53.8,30.12,SE,136,1.0,1.0,80,0.00,,,0.00,Wunderground v.1.15,2013-08-15 03:40:00,
2013-08-14 22:50:00,59.8,53.6,30.12,ESE,112,1.0,2.0,80,0.00,,,0.00,Wunderground v.1.15,2013-08-15 03:50:00,
2013-08-14 22:55:00,59.6,53.8,30.12,ESE,118,0.0,2.0,81,0.00,,,0.00,Wunderground v.1.15,2013-08-15 03:55:00,
2013-08-14 23:00:00,59.4,53.6,30.12,ESE,118,0.0,1.0,81,0.00,,,0.00,Wunderground v.1.15,2013-08-15 04:00:00,
2013-08-14 23:05:00,59.3,53.5,30.12,SE,134,0.0,1.0,81,0.00,,,0.00,Wunderground v.1.15,2013-08-15 04:05:00,
2013-08-14 23:10:00,59.1,53.3,30.12,SE,146,0.0,0.0,81,0.00,,,0.00,Wunderground v.1.15,2013-08-15 04:10:00,
2013-08-14 23:15:00,59.0,53.5,30.12,SE,141,0.0,0.0,82,0.00,,,0.00,Wunderground v.1.15,2013-08-15 04:15:00,
2013-08-14 23:20:00,58.8,53.3,30.12,South,176,1.0,1.0,82,0.00,,,0.00,Wunderground v.1.15,2013-08-15 04:20:00,
2013-08-14 23:25:00,58.6,53.1,30.12,South,176,1.0,1.0,82,0.00,,,0.00,Wunderground v.1.15,2013-08-15 04:25:00,
2013-08-14 23:30:00,58.5,53.4,30.12,South,182,1.0,1.0,83,0.00,,,0.00,Wunderground v.1.15,2013-08-15 04:30:00,
2013-08-14 23:35:00,58.4,53.3,30.12,SSE,162,0.0,1.0,83,0.00,,,0.00,Wunderground v.1.15,2013-08-15 04:35:00,
2013-08-14 23:40:00,58.2,53.1,30.12,SSE,165,0.0,1.0,83,0.00,,,0.00,Wunderground v.1.15,2013-08-15 04:40:00,
2013-08-14 23:45:00,58.1,53.3,30.12,SSE,167,1.0,1.0,84,0.00,,,0.00,Wunderground v.1.15,2013-08-15 04:45:00,
2013-08-14 23:50:00,58.0,53.2,30.12,SSE,168,0.0,3.0,84,0.00,,,0.00,Wunderground v.1.15,2013-08-15 04:50:00,
2013-08-14 23:55:00,57.8,53.0,30.12,South,170,0.0,3.0,84,0.00,,,0.00,Wunderground v.1.15,2013-08-15 04:55:00,